This demonstration page uses our WeatherBlox Daily Observations layout. Learn more.

Left ArrowRight Arrow

Hourly Observations for July 11, 2020

Temp ( °F °C ) Dew Point ( °F °C ) Humidity (%) Winds ( mph kmh ) Pressure ( in mb ) Visibility ( mi km ) Precip ( " mm )
12:54 am 00:54 Clear 74 23.3 68 20 82 82 N 5 7 29.97 1015 10 16.0934 0 0
1:42 am 01:42 Cloudy with Nearby Thunderstorms 75 23.9 61 16.1 62 62 N 31 50 30.05 1018 10 16.0934 0.001 0.001
1:54 am 01:54 Cloudy with Heavy Thunderstorms 70 21.1 62 16.7 76 76 NNW 23 37 30.11 1020 4 6.43736 0.04 1.016
2:28 am 02:28 Cloudy with Nearby Thunderstorms 68 20 62 16.7 81 81 N 10 17 30.1 1019 9 14.48406 0.24 6.096
2:35 am 02:35 Mostly Cloudy with Light Thunderstorms 68 20 62 16.7 81 81 N 10 17 30.1 1019 9 14.48406 0.25 6.35
2:54 am 02:54 Partly Cloudy with Light Rain 67 19.4 62 16.7 84 84 ENE 17 28 30 1016 10 16.0934 0.28 7.112
3:54 am 03:54 Clear 68 20 63 17.2 84 84 W 8 13 29.97 1015 10 16.0934 0.01 0.254
4:54 am 04:54 Mostly Cloudy with Light Rain 67 19.4 62 16.7 84 84 VRB 7 11 30.01 1016 10 16.0934 0.001 0.001
5:24 am 05:24 Partly Cloudy 67 19.4 62 16.7 84 84 SSE 20 31 29.89 1012 10 16.0934 0.001 0.001
5:54 am 05:54 Clear 66 18.9 62 16.7 87 87 S 7 11 29.86 1011 10 16.0934 0.001 0.001
6:54 am 06:54 Sunny 69 20.6 62 16.7 78 78 Calm 29.93 1014 10 16.0934 0 0
7:54 am 07:54 Sunny 72 22.2 63 17.2 73 73 NNE 8 13 29.98 1015 10 16.0934 0 0
8:54 am 08:54 Sunny 76 24.4 63 17.2 64 64 NNW 8 13 30 1016 10 16.0934 0 0
9:54 am 09:54 Sunny 79 26.1 64 17.8 60 60 NNW 6 9 30 1016 10 16.0934 0 0
10:54 am 10:54 Sunny 82 27.8 64 17.8 55 55 NW 8 13 30.01 1016 10 16.0934 0 0
11:54 am 11:54 Sunny 84 28.9 65 18.3 53 53 NW 13 20 30.01 1016 10 16.0934 0 0
12:54 pm 12:54 Sunny 86 30 66 18.9 51 51 N 12 19 30 1016 10 16.0934 0 0
1:54 pm 13:54 Sunny 86 30 66 18.9 51 51 N 15 24 29.99 1016 10 16.0934 0 0
2:54 pm 14:54 Sunny 86 30 67 19.4 53 53 N 14 22 29.98 1015 10 16.0934 0 0
3:54 pm 15:54 Sunny 87 30.6 67 19.4 51 51 N 16 26 29.96 1015 10 16.0934 0 0
4:54 pm 16:54 Sunny 88 31.1 67 19.4 50 50 NNW 9 15 29.94 1014 10 16.0934 0 0
5:54 pm 17:54 Sunny 87 30.6 67 19.4 51 51 NNW 13 20 29.94 1014 10 16.0934 0 0
6:54 pm 18:54 Sunny 86 30 67 19.4 53 53 N 13 20 29.94 1014 10 16.0934 0 0
7:54 pm 19:54 Sunny 82 27.8 63 17.2 53 53 N 13 20 29.96 1014 10 16.0934 0 0
8:54 pm 20:54 Sunny 79 26.1 60 15.6 52 52 N 8 13 29.96 1015 10 16.0934 0 0
9:54 pm 21:54 Clear 75 23.9 61 16.1 62 62 NNW 8 13 29.97 1015 10 16.0934 0 0
10:54 pm 22:54 Clear 71 21.7 61 16.1 71 71 NNW 5 7 29.97 1015 10 16.0934 0 0
11:54 pm 23:54 Clear 67 19.4 61 16.1 81 81 NNW 5 7 29.96 1014 10 16.0934 0 0

Powered by AerisWeather